"Pseudo-MPEC" for C3K9FM2

Created 2020 Oct 18 13:07:12 UT using Find_Orb

Click here for an explanation of pseudo-MPECs

 
 Astrometry: 
     C3K9FM2  C2020 10 16.38260204 18 33.20 +03 26 31.3    ~AG9q 21.70GVNEOCPG96
     C3K9FM2  C2020 10 16.38772604 18 32.05 +03 26 49.6    ~AG9q 21.44GVNEOCPG96
     C3K9FM2  C2020 10 16.39287604 18 30.82 +03 27 07.1    ~AG9q 20.85GVNEOCPG96
     C3K9FM2  C2020 10 16.39801804 18 29.67 +03 27 26.4    ~AG9q 21.28GVNEOCPG96
     C3K9FM2 KC2020 10 16.48518404 18 09.72 +03 32 39.7    ~AGC7 21.62GVNEOCPV06
     C3K9FM2 KC2020 10 16.49141904 18 08.30 +03 33 02.7    ~AGC7 21.45GVNEOCPV06
     C3K9FM2 KC2020 10 16.49300304 18 07.94 +03 33 08.0    ~AGC7 21.66GVNEOCPV06
     C3K9FM2 KC2020 10 16.49458804 18 07.56 +03 33 13.6    ~AGC7       VNEOCPV06
     C3K9FM2 KC2020 10 17.36923504 14 49.01 +04 27 13.9    ~AH9M 21.17GVNEOCPV06
     C3K9FM2 KC2020 10 17.37161304 14 48.42 +04 27 22.9    ~AH9M 21.33GVNEOCPV06
     C3K9FM2 KC2020 10 17.37399104 14 47.84 +04 27 31.8    ~AH9M 21.18GVNEOCPV06
     C3K9FM2 KC2020 10 17.37636804 14 47.24 +04 27 40.9    ~AH9M 21.14GVNEOCPV06
     C3K9FM2 KC2020 10 18.36962004 10 43.95 +05 32 19.8    ~AI9M 21.14GVNEOCPI52
     C3K9FM2 KC2020 10 18.37269004 10 43.15 +05 32 31.6    ~AI9M 21.09GVNEOCPI52
     C3K9FM2 KC2020 10 18.37575904 10 42.34 +05 32 44.2    ~AI9M 21.16GVNEOCPI52

Station data:
(G96) Mt. Lemmon Survey  (N32.442754 W110.788720)  US/Arizona.  Observers T.
   A. Pruyne, B. M. Africano, E. J. Christensen, G. A. Farneth, D. C. Fuls,
   A. R. Gibbs, A. D. Grauer, H. Gröller, J. A. Johnson, R. A. Kowalski, S.
   M. Larson, G. J. Leonard, D. Rankin, R. L. Seaman, F. C. Shelly. 1.5-m
   reflector + 10K CCD.
(I52) Steward Observatory, Mt. Lemmon Station  (N32.442547 W110.788920)
   US/Arizona.  Observers T. A. Pruyne, B. M. Africano, E. J. Christensen, G.
   A. Farneth, D. C. Fuls, A. R. Gibbs, A. D. Grauer, H. Gröller, J. A.
   Johnson, R. A. Kowalski, S. M. Larson, G. J. Leonard, D. Rankin, R. L.
   Seaman, F. C. Shelly. 1.0-m reflector + CCD.
(V06) Catalina Sky Survey-Kuiper  (N32.416847 W110.732550)  US/Arizona.
   Observers T. A. Pruyne, B. M. Africano, E. J. Christensen, G. A. Farneth,
   D. C. Fuls, A. R. Gibbs, A. D. Grauer, H. Gröller, J. A. Johnson, R. A.
   Kowalski, S. M. Larson, G. J. Leonard, D. Rankin, R. L. Seaman, F. C.
   Shelly. 1.55-m reflector + CCD.

Orbital elements:  C3K9FM2
   Perihelion 2021 Mar 17.413341 +/- 0.605 TT =  9:55:12 (JD 2459290.913341)
Epoch 2020 Oct 18.0 TT = JDT 2459140.5   Earth MOID: 0.1704   AutoNEOCP
M 224.43745681 +/- 2.7              (J2000 ecliptic)
n   0.90126675 +/- 0.0154           Peri.  145.36992 +/- 2.0
a   1.06145229 +/- 0.0121           Node    37.80730 +/- 0.056
e   0.2405896 +/- 0.00278           Incl.   43.66180 +/- 1.0
P   1.09/399.43d           H 22.1   G  0.15   U  9.9  
q 0.80607786 +/- 0.0122    Q 1.31682672 +/- 0.0124
From 15 observations 2020 Oct. 16-18 (47.8 hr); mean residual 0".26
Residuals in arcseconds: 
201016 G96  .23+  .54+    201016 V06  .01-  .17+    201017 V06  .05-  .17-    
201016 G96  .49+  .44+    201016 V06  .03+  .25-    201017 V06  .31-  .10-    
201016 G96  .34-  .57-    201016 V06  .23-  .37-    201018 I52  .04-  .30+    
201016 G96  .00   .25+    201017 V06  .03+  .00     201018 I52  .10+  .23-    
201016 V06  .11-  .33-    201017 V06  .09-  .03-    201018 I52  .09+  .05+    

Ephemerides (geocentric):
Date (UTC) HH   RA              Dec         delta   r     elong  mag " sig PA
---- -- -- --  -------------   -----------  ------ ------ -----  --- ---- ---
2020 10 18 13  04 09 59.592   +05 44 05.35  .32549 1.2662 141.1 21.5 .235 133
2020 10 18 14  04 09 48.849   +05 46 54.35  .32512 1.2662 141.2 21.5 .234 129
2020 10 18 15  04 09 38.073   +05 49 43.74  .32475 1.2661 141.3 21.5 .234 124
2020 10 18 16  04 09 27.264   +05 52 33.52  .32439 1.2660 141.4 21.5 .235 120
2020 10 18 17  04 09 16.422   +05 55 23.68  .32402 1.2659 141.5 21.5 .237 115
2020 10 18 18  04 09 05.546   +05 58 14.23  .32365 1.2658 141.6 21.5 .241 110
2020 10 18 19  04 08 54.637   +06 01 05.16  .32329 1.2657 141.7 21.5 .246 106
2020 10 18 20  04 08 43.694   +06 03 56.49  .32292 1.2656 141.8 21.5 .253 101
2020 10 18 21  04 08 32.717   +06 06 48.20  .32256 1.2656 141.9 21.5 .262  97
2020 10 18 22  04 08 21.707   +06 09 40.31  .32219 1.2655 141.9 21.4 .272  93
2020 10 18 23  04 08 10.663   +06 12 32.81  .32183 1.2654 142.0 21.4 .283  89
2020 10 19 00  04 07 59.585   +06 15 25.69  .32147 1.2653 142.1 21.4 .297  85
2020 10 19 01  04 07 48.472   +06 18 18.97  .32111 1.2652 142.2 21.4 .311  81
2020 10 19 02  04 07 37.326   +06 21 12.64  .32074 1.2651 142.3 21.4 .327  78
2020 10 19 03  04 07 26.146   +06 24 06.70  .32038 1.2651 142.4 21.4 .345  75
2020 10 19 04  04 07 14.931   +06 27 01.15  .32002 1.2650 142.5 21.4 .363  72
2020 10 19 05  04 07 03.682   +06 29 56.00  .31966 1.2649 142.6 21.4 .383  69
2020 10 19 06  04 06 52.398   +06 32 51.24  .31930 1.2648 142.7 21.4 .404  66
2020 10 19 07  04 06 41.080   +06 35 46.87  .31894 1.2647 142.8 21.4 .426  64
2020 10 19 08  04 06 29.727   +06 38 42.90  .31859 1.2646 142.9 21.4 .449  62
2020 10 19 09  04 06 18.340   +06 41 39.32  .31823 1.2645 142.9 21.4 .473  60
2020 10 19 10  04 06 06.918   +06 44 36.14  .31787 1.2645 143.0 21.4 .498  58
2020 10 19 11  04 05 55.461   +06 47 33.35  .31751 1.2644 143.1 21.4 .524  56
2020 10 19 12  04 05 43.969   +06 50 30.96  .31716 1.2643 143.2 21.4 .551  55
2020 10 19 13  04 05 32.442   +06 53 28.96  .31680 1.2642 143.3 21.4 .579  53
2020 10 19 14  04 05 20.879   +06 56 27.36  .31645 1.2641 143.4 21.4 .607  52
2020 10 19 15  04 05 09.282   +06 59 26.16  .31609 1.2640 143.5 21.4 .637  50
2020 10 19 16  04 04 57.649   +07 02 25.36  .31574 1.2639 143.6 21.4 .667  49
2020 10 19 17  04 04 45.981   +07 05 24.95  .31539 1.2639 143.7 21.4 .698  48
2020 10 19 18  04 04 34.277   +07 08 24.94  .31503 1.2638 143.8 21.4 .730  47
2020 10 19 19  04 04 22.538   +07 11 25.33  .31468 1.2637 143.9 21.4 .763  46
2020 10 19 20  04 04 10.763   +07 14 26.11  .31433 1.2636 144.0 21.3 .796  45
2020 10 19 21  04 03 58.953   +07 17 27.30  .31398 1.2635 144.1 21.3 .831  44
2020 10 19 22  04 03 47.106   +07 20 28.89  .31363 1.2634 144.1 21.3 .866  43
2020 10 19 23  04 03 35.224   +07 23 30.87  .31328 1.2633 144.2 21.3 .902  42
2020 10 20 00  04 03 23.305   +07 26 33.25  .31293 1.2633 144.3 21.3 .939  41
2020 10 20 01  04 03 11.351   +07 29 36.04  .31259 1.2632 144.4 21.3 .976  40
2020 10 20 02  04 02 59.360   +07 32 39.22  .31224 1.2631 144.5 21.3 1.01  39
2020 10 20 03  04 02 47.333   +07 35 42.81  .31189 1.2630 144.6 21.3 1.05  39
2020 10 20 04  04 02 35.270   +07 38 46.80  .31154 1.2629 144.7 21.3 1.09  38
2020 10 20 05  04 02 23.170   +07 41 51.18  .31120 1.2628 144.8 21.3 1.13  37
2020 10 20 06  04 02 11.034   +07 44 55.97  .31085 1.2627 144.9 21.3 1.18  36
2020 10 20 07  04 01 58.861   +07 48 01.16  .31051 1.2627 145.0 21.3 1.22  36
2020 10 20 08  04 01 46.652   +07 51 06.76  .31017 1.2626 145.1 21.3 1.26  35
2020 10 20 09  04 01 34.405   +07 54 12.75  .30982 1.2625 145.2 21.3 1.30  35
2020 10 20 10  04 01 22.122   +07 57 19.15  .30948 1.2624 145.3 21.3 1.35  34
2020 10 20 11  04 01 09.802   +08 00 25.95  .30914 1.2623 145.4 21.3 1.39  33
2020 10 20 12  04 00 57.444   +08 03 33.15  .30880 1.2622 145.5 21.3 1.44  33